CW5404 Weather Reports


time (UTC)temp
C
wind
direction
speed
KPH
gust
KPH
rain 1hr
cm
rain 24hr
cm
rain mn
cm
humidity
%
barometer
mb
20260905053003 13 117 0.0 0.0 0.00 0.91 0.89 92 1014.6
20260905052503 13 117 0.0 0.0 0.00 0.91 0.89 92 1014.5
20260905052003 13 117 0.0 0.0 0.00 0.91 0.89 92 1014.5
20260905051003 13 121 0.0 0.0 0.00 0.91 0.89 91 1014.6
20260905050502 13 121 0.0 0.0 0.00 0.91 0.89 91 1014.6
20260905050003 13 121 0.0 0.0 0.00 0.91 0.89 90 1014.6
20260905045502 13 121 0.0 0.0 0.00 0.91 0.89 90 1014.5
20260905044503 13 121 0.0 0.0 0.00 0.91 0.89 89 1014.5
20260905043502 13 121 0.0 0.0 0.00 0.91 0.89 88 1014.4
20260905043002 13 121 0.0 0.0 0.00 0.91 0.89 88 1014.4
20260905042502 13 121 0.0 3.2 0.00 0.91 0.89 88 1014.3
20260905042002 14 121 0.0 4.8 0.00 0.91 0.89 88 1014.3
20260905041502 14 138 1.6 4.8 0.00 0.91 0.89 87 1014.3
20260905041002 14 170 0.0 3.2 0.00 0.91 0.89 87 1014.2
20260905040502 14 185 0.0 6.4 0.00 0.91 0.89 87 1014.2
20260905040002 14 201 1.6 6.4 0.00 0.91 0.89 87 1014.2
20260905035502 14 190 0.0 8.0 0.00 0.91 0.89 87 1014.1
20260905035002 14 155 0.0 8.0 0.00 0.91 0.89 87 1014.1
20260905034501 14 169 0.0 1.6 0.00 0.91 0.89 87 1014.1
20260905033502 14 190 0.0 4.8 0.00 0.91 0.89 86 1014.0
20260905033001 14 140 0.0 3.2 0.00 0.91 0.89 86 1014.0
20260905032502 14 151 0.0 3.2 0.00 0.91 0.89 86 1013.8
20260905032002 14 159 0.0 3.2 0.00 0.91 0.89 85 1013.8
20260905031502 15 155 0.0 3.2 0.00 0.91 0.89 85 1013.8
20260905030001 15 196 0.0 6.4 0.00 0.94 0.89 84 1013.6
20260905025501 15 189 3.2 6.4 0.00 0.94 0.89 83 1013.5
20260905025001 15 180 1.6 6.4 0.00 0.94 0.89 82 1013.5
20260905024502 15 161 0.0 9.7 0.00 0.94 0.89 82 1013.5
20260905024002 15 179 1.6 9.7 0.00 0.94 0.89 82 1013.5
20260905023501 15 163 1.6 8.0 0.00 0.94 0.89 82 1013.5
20260905022502 15 172 1.6 6.4 0.00 0.97 0.89 81 1013.5
20260905022001 15 182 0.0 6.4 0.00 0.97 0.89 80 1013.5
20260905021502 15 161 0.0 6.4 0.00 0.97 0.89 80 1013.5
20260905020502 16 194 6.4 9.7 0.00 0.97 0.89 79 1013.5
20260905020001 16 167 0.0 3.2 0.00 0.97 0.89 79 1013.5
20260905015002 16 170 0.0 6.4 0.00 0.97 0.89 79 1013.5
20260905014502 16 173 0.0 6.4 0.00 0.97 0.89 78 1013.5
20260905013502 16 163 3.2 6.4 0.00 0.97 0.89 76 1013.4
20260905013001 16 187 0.0 6.4 0.00 0.97 0.89 76 1013.4
20260905012501 16 173 0.0 6.4 0.00 0.97 0.89 76 1013.1
20260905011502 16 182 4.8 9.7 0.00 0.97 0.89 75 1013.2
20260905011001 16 165 6.4 8.0 0.00 0.97 0.89 74 1013.1
20260905010502 16 132 3.2 8.0 0.00 0.97 0.89 73 1013.1
20260905010001 16 174 1.6 6.4 0.00 0.97 0.89 73 1013.1
20260905005501 16 136 0.0 9.7 0.00 0.97 0.89 73 1013.0
20260905005002 16 113 3.2 9.7 0.00 0.97 0.89 72 1013.0
20260905004501 17 158 1.6 11.3 0.00 0.97 0.89 72 1013.0
20260905003502 17 173 3.2 8.0 0.00 0.97 0.89 72 1012.8
20260905002001 17 176 3.2 11.3 0.00 0.97 0.89 72 1012.7
20260905001502 17 132 8.0 11.3 0.00 0.97 0.89 70 1012.7
20260905001001 17 212 4.8 11.3 0.00 0.97 0.89 69 1012.6
20260905000002 17 190 1.6 12.9 0.00 0.97 0.89 68 1012.6
20260904235502 17 200 3.2 17.7 0.00 0.97 0.89 69 1012.5
20260904235001 17 181 12.9 17.7 0.00 0.97 0.89 66 1012.5
20260904234501 18 192 8.0 14.5 0.00 0.97 0.89 66 1012.5
20260904233501 18 192 6.4 14.5 0.00 0.97 0.89 68 1012.3
20260904233001 18 155 3.2 12.9 0.00 0.97 0.89 69 1012.3
20260904232501 18 156 4.8 12.9 0.00 0.97 0.89 71 1012.4
20260904232001 17 151 3.2 8.0 0.00 0.97 0.89 75 1012.4
20260904231001 17 158 4.8 11.3 0.00 0.97 0.89 74 1012.4
20260904230001 18 126 6.4 12.9 0.00 0.97 0.89 72 1012.4
20260904225501 18 130 4.8 12.9 0.00 0.97 0.89 72 1012.3
20260904225001 18 195 8.0 11.3 0.00 0.97 0.89 70 1012.3
20260904224501 18 123 4.8 16.1 0.00 0.97 0.89 69 1012.3
20260904224001 18 240 9.7 16.1 0.00 0.97 0.89 72 1012.2
20260904223501 18 215 8.0 12.9 0.00 0.97 0.89 71 1012.2
20260904223001 18 188 9.7 12.9 0.00 0.97 0.89 72 1012.2
20260904222502 18 201 9.7 14.5 0.00 0.97 0.89 72 1012.2
20260904222001 18 175 6.4 14.5 0.00 0.97 0.89 74 1012.2
20260904221001 17 168 6.4 9.7 0.00 0.99 0.89 82 1012.2
20260904220501 17 165 4.8 11.3 0.00 0.99 0.89 83 1012.2
20260904220001 17 360 8.0 11.3 0.00 0.99 0.89 83 1012.2
20260904215001 16 360 0.0 11.3 0.00 0.99 0.89 84 1012.4
20260904214501 16 360 4.8 11.3 0.00 0.99 0.89 84 1012.3
20260904213501 16 360 0.0 11.3 0.00 0.99 0.89 87 1012.2
20260904213001 16 360 3.2 9.7 0.00 0.99 0.89 88 1012.2
20260904212001 15 360 1.6 8.0 0.00 0.99 0.89 89 1012.3
20260904211501 15 360 1.6 12.9 0.00 0.99 0.89 89 1012.3
20260904211001 15 360 4.8 12.9 0.03 0.99 0.89 89 1012.1
20260904210501 15 360 8.0 12.9 0.03 0.99 0.89 90 1012.1
20260904210001 15 360 4.8 9.7 0.05 0.99 0.89 92 1012.1
20260904205501 15 360 4.8 14.5 0.05 1.02 0.89 92 1012.1
20260904205001 15 360 6.4 14.5 0.05 1.02 0.89 93 1012.2
20260904204500 15 360 1.6 3.2 0.08 1.02 0.89 96 1012.2
20260904203501 15 360 1.6 4.8 0.20 1.02 0.89 95 1012.1
20260904202500 15 360 3.2 9.7 0.28 1.02 0.89 95 1012.2
20260904202001 15 360 0.0 4.8 0.30 1.04 0.89 95 1012.2
20260904201001 14 98 4.8 6.4 0.30 1.02 0.86 94 1012.2
20260904200501 14 157 4.8 6.4 0.36 1.04 0.86 94 1012.2
20260904200000 14 210 1.6 4.8 0.41 1.04 0.84 94 1012.2
20260904195500 14 167 3.2 3.2 0.43 1.09 0.84 95 1012.1
20260904195001 14 165 0.0 3.2 0.43 1.09 0.84 94 1012.1
20260904194501 14 165 1.6 3.2 0.41 1.09 0.81 94 1012.1
20260904194001 14 165 0.0 0.0 0.36 1.07 0.76 93 1012.1
20260904193500 14 165 0.0 0.0 0.28 0.99 0.69 93 1012.1
20260904192501 14 165 0.0 1.6 0.20 0.94 0.61 92 1012.3
20260904192001 14 165 0.0 1.6 0.18 0.91 0.58 92 1012.3
20260904191501 14 187 0.0 4.8 0.18 0.94 0.58 91 1012.3
20260904191001 14 207 0.0 9.7 0.15 0.91 0.56 90 1012.4
20260904190000 15 209 4.8 8.0 0.03 0.81 0.43 86 1012.4
20260904185500 15 360 4.8 8.0 0.00 0.79 0.41 86 1012.0
20260904185000 15 360 0.0 4.8 0.00 0.79 0.41 87 1012.0
20260904184500 15 360 0.0 3.2 0.00 0.79 0.41 89 1012.0
20260904183500 15 360 0.0 1.6 0.00 0.79 0.41 89 1011.9
20260904183000 15 360 0.0 4.8 0.00 0.79 0.41 91 1011.9
20260904182000 15 360 1.6 3.2 0.00 0.79 0.41 92 1011.9
20260904181500 15 360 1.6 4.8 0.00 0.79 0.41 94 1011.9
20260904181000 15 360 0.0 6.4 0.00 0.79 0.41 94 1011.9
20260904180500 15 360 3.2 6.4 0.00 0.79 0.41 95 1011.9
20260904180000 14 360 0.0 4.8 0.00 0.79 0.41 96 1011.9
20260904175500 14 360 1.6 4.8 0.00 0.79 0.41 97 1011.9
20260904174000 14 360 1.6 6.4 0.00 0.79 0.41 100 1011.7
20260904173500 14 360 0.0 3.2 0.00 0.79 0.41 100 1011.7
20260904173000 13 360 0.0 3.2 0.00 0.79 0.41 100 1011.7
20260904172500 13 360 0.0 4.8 0.00 0.79 0.41 100 1011.5
20260904171959 13 360 0.0 4.8 0.00 0.79 0.41 100 1011.5
20260904170459 13 360 0.0 0.0 0.00 0.79 0.41 100 1011.4
20260904165959 13 360 0.0 0.0 0.00 0.79 0.41 100 1011.4
20260904165459 13 360 0.0 0.0 0.00 0.79 0.41 100 1011.4
20260904164459 13 163 0.0 0.0 0.00 0.79 0.41 100 1011.4
20260904163959 13 163 0.0 0.0 0.00 0.79 0.41 100 1011.4
20260904163459 12 163 0.0 0.0 0.00 0.79 0.41 100 1011.4
20260904163000 13 163 0.0 0.0 0.00 0.79 0.41 100 1011.4
20260904161959 12 163 0.0 0.0 0.00 0.79 0.41 100 1011.4
20260904161459 12 163 0.0 0.0 0.00 0.79 0.41 100 1011.4
20260904161000 12 360 0.0 0.0 0.00 0.79 0.41 100 1011.4
20260904160459 12 165 0.0 0.0 0.00 0.79 0.41 100 1011.4
20260904155959 12 166 0.0 0.0 0.00 0.79 0.41 100 1011.4
20260904154959 12 171 0.0 0.0 0.00 0.79 0.41 100 1011.3
20260904154459 12 171 0.0 0.0 0.00 0.79 0.41 100 1011.3
20260904153959 12 360 0.0 0.0 0.00 0.79 0.41 100 1011.1
20260904153459 12 360 0.0 0.0 0.00 0.79 0.41 100 1011.1
20260904152959 12 163 0.0 0.0 0.00 0.79 0.41 100 1011.1
20260904151959 12 163 0.0 0.0 0.00 0.79 0.41 100 1010.9
20260904151459 12 163 0.0 0.0 0.00 0.79 0.41 100 1010.9
20260904150959 12 163 0.0 0.0 0.00 0.79 0.41 100 1010.9
20260904145959 12 163 0.0 0.0 0.00 0.79 0.41 100 1010.9
20260904145459 12 163 0.0 0.0 0.00 0.79 0.41 100 1010.8
20260904144459 12 163 0.0 0.0 0.00 0.79 0.41 100 1010.8
20260904143958 12 163 0.0 0.0 0.00 0.79 0.41 100 1010.7
20260904142959 12 163 0.0 0.0 0.00 0.79 0.41 100 1010.7
20260904141958 12 163 0.0 0.0 0.00 0.79 0.41 100 1010.4
20260904140959 12 163 0.0 0.0 0.00 0.79 0.41 100 1010.3
20260904135958 12 163 0.0 0.0 0.00 0.79 0.41 100 1010.3
20260904135458 12 163 0.0 0.0 0.00 0.81 0.41 100 1010.1
20260904134958 12 163 0.0 0.0 0.00 0.81 0.41 100 1010.1
20260904134458 12 163 0.0 0.0 0.00 0.81 0.41 100 1010.1
20260904133958 12 163 0.0 0.0 0.00 0.84 0.41 100 1009.9
20260904133458 12 163 0.0 0.0 0.00 0.84 0.41 100 1009.9
20260904132958 12 163 0.0 0.0 0.00 0.86 0.41 100 1009.9
20260904132458 12 163 0.0 0.0 0.03 0.86 0.41 100 1009.8
20260904131958 12 163 0.0 0.0 0.03 0.86 0.41 100 1009.8
20260904130957 12 163 0.0 0.0 0.08 0.86 0.41 100 1009.8
20260904130458 12 163 0.0 0.0 0.08 0.86 0.41 100 1009.8
20260904125457 12 163 0.0 0.0 0.08 0.91 0.41 100 1009.8
20260904124958 12 163 0.0 0.0 0.08 0.99 0.41 100 1009.8
20260904124458 12 163 0.0 0.0 0.08 1.02 0.41 100 1009.8
20260904123957 12 163 0.0 0.0 0.08 1.04 0.41 100 1009.7
20260904123457 12 163 0.0 0.0 0.08 1.07 0.41 100 1009.7
20260904122957 12 163 0.0 0.0 0.08 1.09 0.41 100 1009.7
20260904122457 12 163 0.0 0.0 0.05 1.07 0.38 100 1009.7
20260904121957 12 163 0.0 0.0 0.05 1.09 0.38 100 1009.7
20260904120957 12 163 0.0 0.0 0.00 1.09 0.33 100 1009.5
20260904120457 12 163 0.0 0.0 0.00 1.09 0.33 100 1009.5
20260904115957 12 163 0.0 0.0 0.00 1.09 0.33 100 1009.5
20260904115457 12 163 0.0 0.0 0.00 1.09 0.33 100 1009.3
20260904114957 12 163 0.0 0.0 0.00 1.09 0.33 100 1009.3
20260904113957 12 163 0.0 0.0 0.00 1.09 0.33 100 1009.2
20260904112956 12 163 0.0 0.0 0.03 1.09 0.33 100 1009.2
20260904112456 12 163 0.0 0.0 0.03 1.09 0.33 100 1009.1
20260904111956 12 163 0.0 0.0 0.03 1.09 0.33 100 1009.1
20260904111456 12 163 0.0 0.0 0.03 1.09 0.33 100 1009.1
20260904110957 12 163 0.0 0.0 0.03 1.09 0.33 100 1009.0
20260904110457 12 163 0.0 0.0 0.03 1.09 0.33 100 1009.0
20260904105956 12 163 0.0 0.0 0.03 1.09 0.33 100 1009.0
20260904105456 12 163 0.0 0.0 0.03 1.09 0.33 100 1008.9
20260904104956 12 163 0.0 0.0 0.03 1.09 0.33 100 1008.9
20260904104456 12 163 0.0 0.0 0.03 1.09 0.33 100 1008.9
20260904103956 12 163 0.0 0.0 0.03 1.09 0.33 100 1008.8
20260904102956 12 163 0.0 0.0 0.00 1.07 0.30 100 1008.8
20260904102456 12 163 0.0 0.0 0.00 1.07 0.30 100 1008.8
20260904100956 12 163 0.0 1.6 0.00 1.07 0.30 100 1008.7
20260904100456 12 163 0.0 1.6 0.00 1.07 0.30 100 1008.7
20260904095456 12 163 0.0 3.2 0.03 1.07 0.30 100 1008.7
20260904094955 12 189 1.6 3.2 0.03 1.07 0.30 100 1008.7
20260904094456 12 191 0.0 0.0 0.03 1.07 0.30 100 1008.7
20260904093957 12 191 0.0 0.0 0.05 1.07 0.30 100 1008.8
20260904093455 12 191 0.0 0.0 0.08 1.07 0.30 100 1008.8
20260904092955 12 191 0.0 0.0 0.10 1.07 0.30 100 1008.8
20260904092455 12 191 0.0 3.2 0.10 1.07 0.30 100 1008.8
20260904091955 12 191 0.0 3.2 0.13 1.07 0.30 100 1008.8
20260904091456 12 190 0.0 3.2 0.15 1.07 0.30 100 1008.8
20260904090956 12 190 3.2 3.2 0.18 1.07 0.30 100 1008.9
20260904090455 12 190 0.0 0.0 0.20 1.07 0.30 100 1008.9
20260904085955 12 190 0.0 1.6 0.20 1.04 0.28 100 1008.9
20260904085455 12 190 0.0 1.6 0.23 1.04 0.28 100 1008.9
20260904084955 12 190 0.0 1.6 0.25 1.04 0.28 100 1008.9
20260904084455 12 190 0.0 1.6 0.25 1.04 0.28 100 1008.9
20260904083955 12 190 0.0 1.6 0.23 1.02 0.25 100 1008.8
20260904082955 12 190 0.0 0.0 0.20 0.97 0.20 100 1008.8
20260904082455 12 190 0.0 0.0 0.20 0.97 0.20 100 1008.7
20260904081955 12 190 0.0 0.0 0.18 0.94 0.18 100 1008.7
20260904081455 12 190 0.0 1.6 0.15 0.91 0.15 100 1008.7
20260904080955 12 190 0.0 1.6 0.13 0.89 0.13 100 1008.8
20260904080455 12 190 1.6 3.2 0.10 0.86 0.10 100 1008.8
20260904075455 12 184 0.0 0.0 0.05 0.81 0.05 100 1008.8
20260904074454 12 184 0.0 0.0 0.03 0.79 0.03 100 1008.8
20260904073954 12 184 0.0 0.0 0.03 0.79 0.03 100 1008.8
20260904072455 12 184 0.0 0.0 0.03 0.76 0.00 100 1008.9
20260904071954 12 184 0.0 0.0 0.03 0.76 0.00 100 1008.9
20260904071454 12 184 0.0 0.0 0.03 0.76 0.00 100 1008.9
20260904070454 12 184 0.0 0.0 0.03 0.76 0.00 100 1008.7
20260904065954 12 184 0.0 0.0 0.03 0.76 0.00 100 1008.7
20260904065454 12 184 0.0 0.0 0.03 0.76 0.76 100 1008.8
20260904064954 12 184 0.0 0.0 0.03 0.76 0.76 100 1008.8
20260904064454 12 184 0.0 0.0 0.03 0.76 0.76 100 1008.8
20260904063953 12 184 0.0 0.0 0.03 0.76 0.76 100 1008.8
20260904062953 12 184 0.0 0.0 0.00 0.74 0.74 100 1008.8
20260904062454 12 184 0.0 0.0 0.00 0.74 0.74 100 1008.8
20260904061953 12 184 0.0 0.0 0.00 0.74 0.74 100 1008.8
20260904061453 12 184 0.0 0.0 0.00 0.74 0.74 100 1008.8
20260904060953 12 184 0.0 0.0 0.00 0.76 0.74 100 1008.8
20260904060453 12 184 0.0 1.6 0.00 0.76 0.74 100 1008.8
20260904055953 12 184 0.0 1.6 0.00 0.76 0.74 100 1008.8
20260904055453 12 184 0.0 0.0 0.00 0.76 0.74 99 1008.8
20260904054953 12 184 0.0 1.6 0.00 0.76 0.74 99 1008.8
20260904054453 12 184 0.0 3.2 0.00 0.76 0.74 99 1008.8
20260904053953 12 184 1.6 3.2 0.00 0.76 0.74 99 1008.8